Location: Unspecified
(41.1850°N, 73.2650°W)
Time: 00:38:11
(UTC+00:00)

N. Korean satellite - Pass Details

Date: 24 October 2021
Orbit: 447 x 495 km, 97.3° (Epoch: 30 November)

Event Time Altitude Azimuth Distance (km) Brightness Sun altitude
Rises 22:23:15 0° 209° (SSW) 2,519 10.9 -5.3°
Reaches altitude 10° 22:26:09 10° 237° (WSW) 1,659 10.6 -5.9°
Maximum altitude 22:28:01 14° 268° (W) 1,459 10.6 -6.2°
Drops below altitude 10° 22:29:53 10° 300° (WNW) 1,680 10.1 -6.6°
Sets 22:32:53 0° 327° (NNW) 2,578 10.6 -7.1°
